Overview Statistics Trail Chart Weather Telemetry Raw packets
 

This is the latest recevied weather packets stored in our database for station/object N5CSU. If no packets are shown the sender has not sent any weather packets the latest 10 day(s).

<< 110 111 112 113 114 >>
Time Temp. Humidity Pressure Rain* Wind** Luminosity Snow
1787783034 37.78° C 42% 1012.1 hPa 0 mm - 25 W/m² -
1787782733 37.78° C 40% 1012.6 hPa 0 mm - 74 W/m² -
1787782429 37.78° C 41% 1012.4 hPa 0 mm - 100 W/m² -
1787782124 37.78° C 42% 1012.5 hPa 0 mm - 56 W/m² -
1787781819 37.78° C 43% 1012.7 hPa 0 mm - 110 W/m² -
1787781517 37.78° C 42% 1012.7 hPa 0 mm - 43 W/m² -
1787781217 37.22° C 45% 1012.9 hPa 0 mm - 57 W/m² -
1787780915 37.22° C 45% 1012.8 hPa 0 mm - 42 W/m² -
1787780610 36.67° C 45% 1012.8 hPa 0 mm - 14 W/m² -
1787780305 37.22° C 46% 1013.1 hPa 0 mm - 14 W/m² -
1787780001 37.22° C 47% 1013.1 hPa 0 mm - 17 W/m² -
1787779696 37.22° C 45% 1013.3 hPa 0 mm - 20 W/m² -
1787779395 37.22° C 46% 1013.2 hPa 0 mm - 23 W/m² -
1787779090 36.67° C 47% 1013.2 hPa 0 mm - 28 W/m² -
1787778790 36.11° C 48% 1013.2 hPa 0 mm - 37 W/m² -
1787778485 36.11° C 49% 1013.6 hPa 0 mm - 39 W/m² -
1787778181 36.11° C 50% 1013.6 hPa 0 mm - 33 W/m² -
1787777875 36.11° C 50% 1013.6 hPa 0 mm - 34 W/m² -
1787777572 36.11° C 50% 1013.9 hPa 0 mm - 42 W/m² -
1787777272 35.56° C 51% 1013.8 hPa 0 mm - 48 W/m² -
1787776971 35.56° C 51% 1013.8 hPa 0 mm - 40 W/m² -
1787776665 35.56° C 52% 1013.8 hPa 0 mm - 36 W/m² -
1787776364 35.56° C 52% 1013.9 hPa 0 mm - 37 W/m² -
1787776062 35.56° C 51% 1014.1 hPa 0 mm - 32 W/m² -
1787775757 35.56° C 51% 1014.1 hPa 0 mm - 34 W/m² -

* Rain latest hour (hover to see other rain measurements)
** Current wind speed in m/s (hover to see current wind gust speed)